SDA-1682

导读

SDA_1682是美国太空发展局(SDA)研制的军事卫星,于2025年10月15日发射入轨,属于美国下一代扩散式低地球轨道军事星座的组成部分,该星座分为传输层与跟踪层,SDA_1682大概率承担全球军事数据低延迟传输,或是弹道导弹、高超音速武器的天基预警探测任务。作为SDA批量部署的卫星之一,它依托商业航天技术,大幅缩短研制发射周期,旨在增强美军太空资产的抗摧毁能力与响应效率。

基本信息
目录编号:
65992
目录名称:
SDA_1682
国际标识:
2025-230U
轨道中心:
EARTH
卫星名称:
SDA_1682
卫星全名:
SDA-1682
卫星状态:
在轨 (已飞行325 天)
发射日期:
2025-10-15 UTC
国别 :
美国 (US)
星等 :
--
轨道信息
数据来源 国际轨道数据
星历时间: 2026-09-05T18:18:48+0800
6小时前
查看轨道信息
半长轴: 7348.773km
偏心率: 0.0001382
轨道倾角: 81.304°
近地点辐角 61.197°
升交点赤经 139.012°
平近点角 298.932°
近地点: 969.62km
远地点: 971.652km
周期: 104.492分钟
每日圈数: 13.780994
详细信息
使用方式:
暂无
2D轨道图
3D轨道图
轨道高度分析图
轨道倾角分析图
轨道综合分析图
查看轨道综合分析图
交会数据列表
事件ID 空间交会对象 最接近时刻(TCA) 交会距离 交会风险概率(CRP) 交会风险指数(CRI) 操作
CDM_260903-030000-515006-599223
SDA_1682 (65992)
2026-09-03T
03:00:40+0000
1.270 km
极远距离
1.169947E-5 中风险 0.56
CDM_260907-051701-132606-599224
SDA_1682 (65992)
2026-09-07T
05:17:54+0000
2.029 km
极远距离
2.680655E-6 低风险 0.44
CDM_260906-134303-119206-599224
SDA_1682 (65992)
2026-09-06T
13:43:02+0000
1.933 km
极远距离
2.544958E-6 低风险 0.43
CDM_260906-022700-476706-599224
SDA_1682 (65992)
2026-09-06T
02:27:16+0000
2.976 km
极远距离
1.311195E-6 低风险 0.37